Regional Weather Roundup
Issued by NWS

Home | Current Version | Previous Version | Graphics & Text | Print | Product List | Glossary Off
Versions: 1 2 3 4 5 6 7 8 9 10 11 12 13 14 15 16 17 18 19 20 21 22 23 24 25 26 27 28 29 30 31 32 33 34 35 36 37 38 39 40 41 42 43 44 45 46 47 48 49 50

000
ASUS43 KTOP 221959
RWRKS

WEATHER ROUNDUP FOR KANSAS
NATIONAL WEATHER SERVICE GOODLAND KS
300 PM CDT MON SEP 22 2014

NOTE:  "FAIR" INDICATES FEW OR NO CLOUDS BELOW 12,000 FEET WITH NO
SIGNIFICANT WEATHER AND/OR OBSTRUCTIONS TO VISIBILITY.

KSZ001>006-013>018-027>032-041>047-222100-
NORTHWEST KANSAS

CITY           SKY/WX    TMP DP  RH WIND       PRES   REMARKS
GOODLAND       CLOUDY    73  49  42 S21G31    30.18F
HAYS           MOSUNNY   77  46  33 SE18      30.22F
HILL CITY      LGT RAIN  79  45  29 SE13G25   30.21F
RUSSELL        MOSUNNY   75  47  36 S13       30.22F
$$

KSZ061>065-074>080-084>089-222100-
SOUTHWEST KANSAS

CITY           SKY/WX    TMP DP  RH WIND       PRES   REMARKS
DODGE CITY     MOSUNNY   78  41  26 S17G23    30.24F
ELKHART          N/A     76  54  46 S18         N/A
GARDEN CITY    MOSUNNY   78  43  28 S15G30    30.21F
GREAT BEND     SUNNY     75  45  33 SE13G18   30.23F
LIBERAL        MOSUNNY   79  46  31 S17G23    30.24F
$$

KSZ066>073-081>083-090>101-222100-
SOUTHEAST KANSAS

CITY           SKY/WX    TMP DP  RH WIND       PRES   REMARKS
CHANUTE        SUNNY     72  51  47 VRB3      30.26F
COFFEYVILLE    SUNNY     74  52  46 E7        30.25F
HUTCHINSON     SUNNY     76  45  33 E5        30.25F
NEWTON         SUNNY     75  46  35 CALM      30.27F
PARSONS        SUNNY     74  52  46 CALM      30.27F
WICHITA INTL   MOSUNNY   79  43  27 S9        30.24F
WICHITA JABRA  MOSUNNY   75  42  30 VRB5      30.24F
WINFIELD       MOSUNNY   74  48  39 SE8       30.26F
$$

KSZ007>012-019>026-033>040-048>060-102>105-222100-
NORTHEAST KANSAS

CITY           SKY/WX    TMP DP  RH WIND       PRES   REMARKS
EMPORIA        SUNNY     73  51  46 SE5       30.26F
LAWRENCE       SUNNY     73  51  46 W6        30.26F
MANHATTAN      MOSUNNY   76  49  38 SE10      30.25F
OLATHE IND     SUNNY     71  51  49 VRB3      30.27F
OLATHE EXE     SUNNY     72  53  51 CALM      30.26F
SALINA         SUNNY     75  48  38 S7        30.24F
TOPEKA BILLARD SUNNY     74  48  39 CALM      30.26F
TOPEKA FORBES  SUNNY     74  48  39 CALM      30.26F
$$



USA.gov is the U.S. government's official web portal to all federal, state and local government web resources and services.